Regional Weather Roundup
Issued by NWS

Home | Current Version | Previous Version | Text Only | Print | Product List | Glossary Off
Versions: 1 2 3 4 5 6 7 8 9 10 11 12 13 14 15 16 17 18 19 20 21 22 23 24 25 26 27 28 29 30 31 32 33 34 35 36 37 38 39 40 41 42 43 44 45 46 47 48 49 50

000
ASUS43 KOAX 300710
RWRNE
OMARWRNE ALL

WEATHER ROUNDUP FOR NEBRASKA
NATIONAL WEATHER SERVICE OMAHA NE
200 AM CDT SAT MAY 30 2015

NOTES: SATELLITE DATA IS BEING USED TO AUGMENT CLOUD COVER ABOVE
       12000 FEET.
       "FAIR" INDICATES FEW OR NO CLOUDS BELOW 12,000 FEET WITH NO
       SIGNIFICANT WEATHER AND/OR OBSTRUCTIONS TO VISIBILITY.

  * THESE STATIONS DO NOT REPORT WEATHER SUCH AS RAIN...SNOW OR FOG.

NEZ001>004-019>022-054>056-300800-
NEBRASKA PANHANDLE

CITY           SKY/WX    TMP DP  RH WIND       PRES   REMARKS
SCOTTSBLUFF    CLOUDY    48  45  89 NE7       30.30S
ALLIANCE       FOG       35  35 100 W5        30.29S VSB 1/4 WCI  31
CHADRON        CLEAR     41  39  93 CALM      30.29F
KIMBALL          N/A    N/A N/A N/A MISG        N/A
SIDNEY         CLOUDY    46  43  89 NE6       30.32R
$$

NEZ057>060-069>072-079>082-300800-
SOUTHWEST NEBRASKA

CITY           SKY/WX    TMP DP  RH WIND       PRES   REMARKS
NORTH PLATTE   CLEAR     41  39  93 NW7       30.28S
IMPERIAL       CLOUDY    49  43  80 N10       30.31R
LEXINGTON      PTCLDY    50  42  76 N13       30.25S
MCCOOK         CLOUDY    50  44  80 N16       30.28R
OGALLALA       CLEAR     43  41  93 CALM      30.30R
$$

NEZ005>010-023>029-035>040-094-300800-
NORTH CENTRAL NEBRASKA

CITY           SKY/WX    TMP DP  RH WIND       PRES   REMARKS
VALENTINE      MOCLDY    41  38  89 NW6       30.29R
AINSWORTH      CLOUDY    43  40  89 NW5       30.28S
BROKEN BOW     CLOUDY    48  42  80 N18       30.23F
O`NEILL        CLOUDY    47  44  90 N12       30.24S
ORD            CLOUDY    49  42  77 N15       30.21S
THEDFORD       CLEAR     42  41  97 N5        30.29S
$$

NEZ041-046>049-061>064-073>077-083>087-300800-
SOUTH CENTRAL NEBRASKA

CITY           SKY/WX    TMP DP  RH WIND       PRES   REMARKS
GRAND ISLAND   LGT RAIN  48  44  86 N17G25    30.19F FOG
AURORA         CLOUDY    50  46  87 N20G28    30.17S
HASTINGS       CLOUDY    50  43  77 N22G31    30.18S
HEBRON         CLOUDY    51  46  83 N15G28    30.14S
HOLDREGE       CLOUDY    49  43  78 N16G25    30.22S
KEARNEY *      CLOUDY    52  43  71 N17       30.22S
YORK           MOCLDY    50  46  87 N14       30.15F
$$

NEZ011>018-030>034-042>045-300800-
NORTHEAST NEBRASKA

CITY           SKY/WX    TMP DP  RH WIND       PRES   REMARKS
NORFOLK        CLOUDY    50  45  83 N16G26    30.16S
ALBION         CLOUDY    49  42  76 N10G21    30.19S
BLAIR          LGT RAIN  50  47  90 N18G26    30.09F
COLUMBUS *     CLOUDY    52  41  66 N16G22    30.18S
FREMONT        CLOUDY    53  46  76 N13G22    30.13S
TEKAMAH        CLOUDY    52  47  83 N20       30.11S
WAYNE          CLOUDY    49  45  83 N15G21    30.16F
$$

NEZ050>053-065>068-078-088>093-300800-
SOUTHEAST NEBRASKA

CITY           SKY/WX    TMP DP  RH WIND       PRES   REMARKS
LINCOLN        CLOUDY    54  48  80 N20G25    30.12F
OMAHA EPPLEY   CLOUDY    53  49  86 N16       30.08R
BEATRICE       CLOUDY    54  50  87 N22       30.10R
FALLS CITY     CLOUDY    58  56  93 N14G22    29.99F
NEBRASKA CITY  CLOUDY    54  53  95 N16       30.05F
PLATTSMOUTH    CLOUDY    53  49  87 NW13G20   30.06F
$$

NEZ044-045-051>053-067-300800-
OMAHA AREA

CITY           SKY/WX    TMP DP  RH WIND       PRES   REMARKS
OMAHA EPPLEY   CLOUDY    53  49  86 N16       30.08R
BLAIR          LGT RAIN  50  47  90 N18G26    30.09F
FREMONT        CLOUDY    53  46  76 N13G22    30.13S
MILLARD        CLOUDY    54  49  84 NW10G20   30.09F
OFFUTT AFB     CLOUDY    54  50  86 N10G18    30.07S
PLATTSMOUTH    CLOUDY    53  49  87 NW13G20   30.06F
WAHOO          CLOUDY    53  49  87 N16G22    30.11F
$$



USA.gov is the U.S. government's official web portal to all federal, state and local government web resources and services.